カタログに戻る

SL-12 R/B(2)

運用中HEO
NORAD 23845·ROCKET BODY·🇷🇺 Russia

打ち上げ Apr 8, 1996 から Baikonur Cosmodrome

Loading…

次のパス (今後24時間)

TLE

最新Source: Space-Track

元期: Sep 14, 2026, 21:58 UTC

1 23845U 96021D   26257.91576072 -.00000136  00000-0  00000-0 0  9990
2 23845   4.9870 221.5023 3968146 290.8023  42.4157  1.64338232182688

AllMySatでSL-12 R/B(2)をリアルタイム追跡

Download on the App Store